Location: Ciochowice
(50.4289°N, 18.5217°E)
Time: 04:57:30
(UTC+01:00)

ISS - Visible Passes

Search period start: 24 November 2017 00:00
Search period end: 04 December 2017 00:00
Orbit: 402 x 407 km, 51.6° (Epoch: 24 November)

Date Brightness Start Highest point End Pass type
(mag) Time Alt. Az. Time Alt. Az. Time Alt. Az.
28 Nov -1.4 18:16:45 10° SSW 18:17:50 17° SSW 18:17:50 17° SSW visible
29 Nov -2.0 17:25:05 10° S 17:27:25 18° SE 17:27:45 18° SE visible
29 Nov -0.4 19:00:13 10° WSW 19:00:25 11° WSW 19:00:25 11° WSW visible
30 Nov -1.4 16:34:11 10° SSE 16:35:18 11° SE 16:36:25 10° ESE visible
30 Nov -2.6 18:07:58 10° SW 18:10:15 36° SSW 18:10:15 36° SSW visible
01 Dec -2.7 17:15:54 10° SW 17:18:52 32° SSE 17:20:01 25° ESE visible
01 Dec -0.8 18:51:52 10° W 18:52:40 16° W 18:52:40 16° W visible
02 Dec -2.0 16:24:04 10° SSW 16:26:38 21° SE 16:29:12 10° E visible
02 Dec -3.6 17:59:28 10° WSW 18:02:23 65° SW 18:02:23 65° SW visible
03 Dec -3.5 17:07:09 10° SW 17:10:23 55° SSE 17:12:04 24° E visible
03 Dec -1.1 18:43:33 10° W 18:44:42 20° W 18:44:42 20° W visible
